| time (UTC) | temp F | wind direction | speed MPH | gust MPH | rain 1hr in | rain 24hr in | rain mn in | humidity % | barometer mb |
| 20260510221134 | 35 | 159 | 2.0 | 7.0 | 0.00 | 0.00 | 0.00 | 10 | 961.2 |
| 20260510220634 | 35 | 126 | 2.0 | 7.0 | 0.00 | 0.00 | 0.00 | 10 | 961.3 |
| 20260510220104 | 35 | 217 | 2.0 | 7.0 | 0.00 | 0.00 | 0.00 | 10 | 961.3 |
| 20260510215604 | 35 | 141 | 1.0 | 7.0 | 0.00 | 0.00 | 0.00 | 10 | 961.4 |
| 20260510215034 | 35 | 79 | 1.0 | 6.0 | 0.00 | 0.00 | 0.00 | 10 | 961.5 |
| 20260510214504 | 35 | 114 | 1.0 | 6.0 | 0.00 | 0.00 | 0.00 | 10 | 961.4 |
| 20260510214004 | 35 | 51 | 2.0 | 8.0 | 0.00 | 0.00 | 0.00 | 10 | 961.4 |
| 20260510213504 | 35 | 103 | 2.0 | 9.0 | 0.00 | 0.00 | 0.00 | 10 | 961.3 |
| 20260510213004 | 36 | 72 | 2.0 | 9.0 | 0.00 | 0.00 | 0.00 | 99 | 961.5 |
| 20260510212434 | 36 | 85 | 2.0 | 7.0 | 0.00 | 0.00 | 0.00 | 98 | 961.5 |
| 20260510211904 | 37 | 97 | 0.0 | 5.0 | 0.00 | 0.00 | 0.00 | 98 | 961.5 |
| 20260510211404 | 37 | 164 | 0.0 | 2.0 | 0.00 | 0.00 | 0.00 | 98 | 961.5 |
| 20260510210904 | 37 | 317 | 0.0 | 4.0 | 0.00 | 0.00 | 0.00 | 99 | 961.4 |
| 20260510210404 | 36 | 102 | 1.0 | 4.0 | 0.00 | 0.00 | 0.00 | 99 | 961.4 |
| 20260510205904 | 36 | 121 | 1.0 | 4.0 | 0.00 | 0.00 | 0.00 | 99 | 961.5 |
| 20260510205404 | 36 | 12 | 0.0 | 2.0 | 0.00 | 0.00 | 0.00 | 10 | 961.6 |
| 20260510204904 | 37 | 87 | 0.0 | 2.0 | 0.00 | 0.00 | 0.00 | 10 | 961.6 |
| 20260510204334 | 36 | 185 | 1.0 | 3.0 | 0.00 | 0.00 | 0.00 | 10 | 961.6 |
| 20260510203833 | 36 | 186 | 1.0 | 7.0 | 0.00 | 0.00 | 0.00 | 10 | 961.7 |
| 20260510203334 | 36 | 198 | 2.0 | 7.0 | 0.00 | 0.00 | 0.00 | 10 | 961.6 |
| 20260510202833 | 36 | 184 | 2.0 | 6.0 | 0.00 | 0.00 | 0.00 | 10 | 961.8 |
| 20260510202333 | 36 | 134 | 2.0 | 5.0 | 0.00 | 0.00 | 0.00 | 10 | 961.9 |
| 20260510201833 | 35 | 168 | 2.0 | 7.0 | 0.00 | 0.00 | 0.00 | 10 | 961.8 |
| 20260510201334 | 35 | 160 | 3.0 | 7.0 | 0.00 | 0.00 | 0.00 | 10 | 962.0 |
| 20260510200833 | 35 | 188 | 3.0 | 9.0 | 0.00 | 0.00 | 0.00 | 10 | 962.0 |
| 20260510200333 | 35 | 216 | 3.0 | 10.0 | 0.00 | 0.00 | 0.00 | 10 | 961.9 |
| 20260510195833 | 36 | 147 | 3.0 | 10.0 | 0.00 | 0.00 | 0.00 | 10 | 962.1 |
| 20260510195333 | 36 | 162 | 3.0 | 7.0 | 0.00 | 0.00 | 0.00 | 10 | 962.1 |
| 20260510194833 | 36 | 190 | 2.0 | 6.0 | 0.00 | 0.00 | 0.00 | 10 | 962.1 |
| 20260510194303 | 36 | 179 | 2.0 | 6.0 | 0.00 | 0.00 | 0.00 | 99 | 962.1 |
| 20260510193733 | 36 | 196 | 2.0 | 6.0 | 0.00 | 0.00 | 0.00 | 99 | 962.0 |
| 20260510193233 | 36 | 199 | 2.0 | 6.0 | 0.00 | 0.00 | 0.00 | 99 | 961.9 |
| 20260510192703 | 36 | 278 | 2.0 | 6.0 | 0.00 | 0.00 | 0.00 | 99 | 961.9 |
| 20260510192133 | 37 | 182 | 2.0 | 6.0 | 0.00 | 0.00 | 0.00 | 99 | 962.1 |
| 20260510191633 | 37 | 196 | 2.0 | 5.0 | 0.00 | 0.00 | 0.00 | 99 | 962.1 |
| 20260510191133 | 37 | 243 | 2.0 | 5.0 | 0.00 | 0.00 | 0.00 | 99 | 961.9 |
| 20260510190603 | 37 | 207 | 2.0 | 5.0 | 0.00 | 0.00 | 0.00 | 99 | 962.0 |
| 20260510190103 | 37 | 166 | 2.0 | 6.0 | 0.00 | 0.00 | 0.00 | 99 | 961.9 |
| 20260510185533 | 37 | 159 | 2.0 | 7.0 | 0.00 | 0.00 | 0.00 | 99 | 961.9 |
| 20260510185033 | 37 | 257 | 3.0 | 7.0 | 0.00 | 0.00 | 0.00 | 99 | 961.9 |
| 20260510184533 | 37 | 201 | 2.0 | 6.0 | 0.00 | 0.00 | 0.00 | 99 | 961.9 |
| 20260510184003 | 37 | 214 | 3.0 | 6.0 | 0.00 | 0.00 | 0.00 | 99 | 961.8 |
| 20260510183503 | 37 | 207 | 3.0 | 6.0 | 0.00 | 0.00 | 0.00 | 10 | 961.9 |
| 20260510183003 | 37 | 208 | 3.0 | 6.0 | 0.00 | 0.00 | 0.00 | 99 | 962.0 |
| 20260510182503 | 37 | 214 | 3.0 | 6.0 | 0.00 | 0.00 | 0.00 | 10 | 962.0 |
| 20260510181933 | 37 | 250 | 3.0 | 7.0 | 0.00 | 0.00 | 0.00 | 10 | 962.1 |
| 20260510181433 | 37 | 219 | 3.0 | 7.0 | 0.00 | 0.00 | 0.00 | 10 | 962.1 |
| 20260510180903 | 37 | 262 | 3.0 | 6.0 | 0.00 | 0.00 | 0.00 | 10 | 962.2 |
| 20260510180403 | 37 | 265 | 3.0 | 6.0 | 0.00 | 0.00 | 0.00 | 10 | 962.2 |
| 20260510175903 | 37 | 245 | 3.0 | 6.0 | 0.00 | 0.00 | 0.00 | 10 | 962.2 |
| 20260510175403 | 37 | 218 | 3.0 | 7.0 | 0.00 | 0.00 | 0.00 | 10 | 962.1 |
| 20260510174903 | 37 | 221 | 3.0 | 7.0 | 0.00 | 0.00 | 0.00 | 10 | 962.1 |
| 20260510174403 | 37 | 224 | 4.0 | 8.0 | 0.00 | 0.00 | 0.00 | 10 | 962.1 |
| 20260510173903 | 37 | 253 | 5.0 | 9.0 | 0.00 | 0.00 | 0.00 | 10 | 962.1 |
| 20260510173403 | 37 | 235 | 5.0 | 9.0 | 0.00 | 0.00 | 0.00 | 10 | 962.1 |
| 20260510172903 | 37 | 209 | 4.0 | 8.0 | 0.00 | 0.00 | 0.00 | 10 | 962.2 |
| 20260510172403 | 37 | 243 | 4.0 | 8.0 | 0.00 | 0.00 | 0.00 | 10 | 962.1 |
| 20260510171903 | 37 | 241 | 4.0 | 9.0 | 0.00 | 0.00 | 0.00 | 99 | 962.2 |
| 20260510171403 | 37 | 217 | 4.0 | 9.0 | 0.00 | 0.00 | 0.00 | 99 | 962.1 |
| 20260510170903 | 37 | 233 | 4.0 | 9.0 | 0.00 | 0.00 | 0.00 | 99 | 962.2 |
| 20260510170333 | 37 | 255 | 5.0 | 11.0 | 0.00 | 0.00 | 0.00 | 98 | 962.2 |
| 20260510165833 | 37 | 272 | 6.0 | 12.0 | 0.00 | 0.00 | 0.00 | 99 | 962.2 |
| 20260510165332 | 37 | 254 | 6.0 | 14.0 | 0.00 | 0.00 | 0.00 | 99 | 962.2 |
| 20260510164832 | 37 | 235 | 6.0 | 14.0 | 0.00 | 0.00 | 0.00 | 98 | 962.1 |
| 20260510164332 | 37 | 205 | 6.0 | 12.0 | 0.00 | 0.00 | 0.00 | 98 | 962.2 |
| 20260510163832 | 37 | 249 | 7.0 | 11.0 | 0.00 | 0.00 | 0.00 | 99 | 962.5 |
| 20260510163332 | 37 | 259 | 7.0 | 14.0 | 0.00 | 0.00 | 0.00 | 98 | 962.5 |
| 20260510162832 | 37 | 238 | 6.0 | 14.0 | 0.00 | 0.00 | 0.00 | 10 | 962.4 |
| 20260510162332 | 37 | 207 | 6.0 | 14.0 | 0.00 | 0.00 | 0.00 | 99 | 962.4 |
| 20260510161832 | 37 | 208 | 6.0 | 13.0 | 0.00 | 0.00 | 0.00 | 10 | 962.5 |
| 20260510161332 | 36 | 255 | 6.0 | 13.0 | 0.00 | 0.00 | 0.00 | 10 | 962.7 |
| 20260510160832 | 36 | 246 | 6.0 | 12.0 | 0.00 | 0.00 | 0.00 | 10 | 962.7 |
| 20260510160332 | 36 | 239 | 6.0 | 12.0 | 0.00 | 0.00 | 0.00 | 10 | 962.6 |
| 20260510155802 | 36 | 228 | 6.0 | 11.0 | 0.00 | 0.00 | 0.00 | 10 | 962.6 |
| 20260510155305 | 36 | 244 | 5.0 | 11.0 | 0.00 | 0.00 | 0.00 | 10 | 962.6 |
| 20260510154802 | 36 | 232 | 5.0 | 11.0 | 0.00 | 0.00 | 0.00 | 10 | 962.7 |
| 20260510154302 | 35 | 244 | 5.0 | 11.0 | 0.00 | 0.00 | 0.00 | 10 | 962.8 |
| 20260510153802 | 35 | 252 | 5.0 | 11.0 | 0.00 | 0.00 | 0.00 | 10 | 962.8 |
| 20260510153302 | 35 | 240 | 5.0 | 9.0 | 0.00 | 0.00 | 0.00 | 10 | 962.8 |
| 20260510152802 | 35 | 256 | 5.0 | 11.0 | 0.00 | 0.00 | 0.00 | 10 | 962.9 |
| 20260510152306 | 35 | 242 | 5.0 | 11.0 | 0.00 | 0.00 | 0.00 | 10 | 963.0 |
| 20260510151802 | 35 | 202 | 5.0 | 11.0 | 0.00 | 0.00 | 0.00 | 10 | 963.1 |
| 20260510151302 | 35 | 220 | 4.0 | 10.0 | 0.00 | 0.00 | 0.00 | 10 | 963.1 |
| 20260510150732 | 35 | 230 | 4.0 | 8.0 | 0.00 | 0.00 | 0.00 | 10 | 963.2 |
| 20260510150232 | 35 | 218 | 4.0 | 9.0 | 0.00 | 0.00 | 0.00 | 10 | 963.4 |
| 20260510145702 | 35 | 206 | 4.0 | 9.0 | 0.00 | 0.00 | 0.00 | 10 | 963.4 |
| 20260510145202 | 35 | 253 | 5.0 | 9.0 | 0.00 | 0.00 | 0.00 | 10 | 963.4 |
| 20260510144702 | 35 | 199 | 4.0 | 9.0 | 0.00 | 0.00 | 0.00 | 10 | 963.5 |
| 20260510144202 | 35 | 219 | 5.0 | 11.0 | 0.00 | 0.00 | 0.00 | 10 | 963.5 |
| 20260510143702 | 35 | 207 | 5.0 | 11.0 | 0.00 | 0.00 | 0.00 | 10 | 963.6 |
| 20260510143202 | 35 | 234 | 4.0 | 10.0 | 0.00 | 0.00 | 0.00 | 10 | 963.6 |
| 20260510142702 | 35 | 254 | 5.0 | 10.0 | 0.00 | 0.00 | 0.00 | 10 | 963.7 |
| 20260510142202 | 35 | 221 | 5.0 | 9.0 | 0.00 | 0.00 | 0.00 | 10 | 963.8 |
| 20260510141632 | 35 | 230 | 3.0 | 9.0 | 0.00 | 0.00 | 0.00 | 10 | 963.8 |
| 20260510141132 | 35 | 228 | 3.0 | 8.0 | 0.00 | 0.00 | 0.00 | 10 | 963.9 |
| 20260510140632 | 35 | 182 | 3.0 | 8.0 | 0.00 | 0.00 | 0.00 | 10 | 963.8 |
| 20260510140132 | 35 | 196 | 4.0 | 9.0 | 0.00 | 0.00 | 0.00 | 10 | 963.9 |
| 20260510135632 | 35 | 242 | 4.0 | 9.0 | 0.00 | 0.00 | 0.00 | 10 | 963.9 |
| 20260510135131 | 35 | 251 | 5.0 | 11.0 | 0.00 | 0.00 | 0.00 | 10 | 963.8 |
| 20260510134631 | 35 | 227 | 5.0 | 11.0 | 0.00 | 0.00 | 0.00 | 10 | 963.9 |
| 20260510134132 | 35 | 216 | 4.0 | 10.0 | 0.00 | 0.00 | 0.00 | 10 | 964.0 |
| 20260510133631 | 35 | 262 | 4.0 | 8.0 | 0.00 | 0.00 | 0.00 | 10 | 964.1 |
| 20260510133131 | 35 | 237 | 4.0 | 8.0 | 0.00 | 0.00 | 0.00 | 10 | 964.0 |
| 20260510132631 | 35 | 241 | 4.0 | 9.0 | 0.00 | 0.00 | 0.00 | 10 | 964.1 |
| 20260510132131 | 35 | 230 | 4.0 | 9.0 | 0.00 | 0.00 | 0.00 | 10 | 964.3 |
| 20260510131631 | 35 | 215 | 5.0 | 10.0 | 0.00 | 0.00 | 0.00 | 10 | 964.2 |
| 20260510131131 | 35 | 223 | 5.0 | 10.0 | 0.00 | 0.00 | 0.00 | 10 | 964.2 |
| 20260510130631 | 35 | 191 | 5.0 | 11.0 | 0.00 | 0.00 | 0.00 | 10 | 964.3 |
| 20260510130131 | 35 | 249 | 5.0 | 11.0 | 0.00 | 0.00 | 0.00 | 10 | 964.4 |
| 20260510125631 | 35 | 203 | 5.0 | 12.0 | 0.00 | 0.00 | 0.00 | 10 | 964.5 |
| 20260510125131 | 35 | 197 | 5.0 | 12.0 | 0.00 | 0.00 | 0.00 | 10 | 964.4 |
| 20260510124631 | 35 | 227 | 5.0 | 10.0 | 0.00 | 0.00 | 0.00 | 10 | 964.5 |
| 20260510124131 | 35 | 252 | 5.0 | 10.0 | 0.00 | 0.00 | 0.00 | 10 | 964.6 |
| 20260510123631 | 35 | 195 | 5.0 | 10.0 | 0.00 | 0.00 | 0.00 | 10 | 964.6 |
| 20260510123131 | 36 | 226 | 4.0 | 11.0 | 0.00 | 0.00 | 0.00 | 10 | 964.7 |
| 20260510122631 | 36 | 233 | 4.0 | 11.0 | 0.00 | 0.00 | 0.00 | 10 | 964.7 |
| 20260510122131 | 36 | 226 | 4.0 | 11.0 | 0.00 | 0.00 | 0.00 | 10 | 964.7 |
| 20260510121631 | 36 | 178 | 4.0 | 9.0 | 0.00 | 0.00 | 0.00 | 10 | 964.8 |
| 20260510121131 | 36 | 207 | 4.0 | 9.0 | 0.00 | 0.00 | 0.00 | 10 | 964.8 |
| 20260510120631 | 36 | 218 | 4.0 | 10.0 | 0.00 | 0.00 | 0.00 | 10 | 964.8 |
| 20260510120131 | 36 | 247 | 4.0 | 12.0 | 0.00 | 0.00 | 0.00 | 10 | 965.0 |
| 20260510115601 | 36 | 176 | 4.0 | 12.0 | 0.00 | 0.00 | 0.00 | 10 | 965.1 |
| 20260510115101 | 36 | 255 | 3.0 | 8.0 | 0.00 | 0.00 | 0.00 | 10 | 965.2 |
| 20260510114601 | 36 | 230 | 3.0 | 8.0 | 0.00 | 0.00 | 0.00 | 10 | 965.3 |
| 20260510114101 | 36 | 240 | 3.0 | 7.0 | 0.00 | 0.00 | 0.00 | 10 | 965.2 |
| 20260510113601 | 36 | 260 | 3.0 | 7.0 | 0.00 | 0.00 | 0.00 | 10 | 965.3 |
| 20260510113031 | 36 | 229 | 4.0 | 9.0 | 0.00 | 0.00 | 0.00 | 10 | 965.3 |
| 20260510112531 | 36 | 189 | 4.0 | 9.0 | 0.00 | 0.00 | 0.00 | 10 | 965.3 |
| 20260510112031 | 36 | 236 | 3.0 | 7.0 | 0.00 | 0.00 | 0.00 | 10 | 965.4 |
| 20260510111501 | 36 | 243 | 3.0 | 8.0 | 0.00 | 0.00 | 0.00 | 10 | 965.4 |
| 20260510111001 | 36 | 218 | 3.0 | 11.0 | 0.00 | 0.00 | 0.00 | 99 | 965.6 |
| 20260510110431 | 37 | 223 | 3.0 | 11.0 | 0.00 | 0.00 | 0.00 | 98 | 965.5 |
| 20260510105901 | 38 | 165 | 3.0 | 8.0 | 0.00 | 0.00 | 0.00 | 98 | 965.7 |
| 20260510105331 | 38 | 209 | 3.0 | 7.0 | 0.00 | 0.00 | 0.00 | 97 | 965.7 |
| 20260510104831 | 38 | 235 | 3.0 | 7.0 | 0.00 | 0.00 | 0.00 | 99 | 965.8 |
| 20260510104331 | 38 | 239 | 4.0 | 7.0 | 0.00 | 0.00 | 0.00 | 98 | 965.8 |
| 20260510103831 | 38 | 237 | 4.0 | 7.0 | 0.00 | 0.00 | 0.00 | 99 | 965.8 |
| 20260510103331 | 38 | 246 | 4.0 | 8.0 | 0.00 | 0.00 | 0.00 | 99 | 965.7 |
| 20260510102831 | 38 | 252 | 4.0 | 9.0 | 0.00 | 0.00 | 0.00 | 98 | 965.8 |
| 20260510102301 | 38 | 288 | 4.0 | 10.0 | 0.00 | 0.00 | 0.00 | 98 | 965.8 |
| 20260510101801 | 38 | 281 | 4.0 | 10.0 | 0.00 | 0.00 | 0.00 | 98 | 965.8 |
| 20260510101301 | 38 | 260 | 4.0 | 8.0 | 0.00 | 0.00 | 0.00 | 98 | 965.9 |
| 20260510100801 | 38 | 257 | 4.0 | 9.0 | 0.00 | 0.00 | 0.00 | 97 | 965.8 |
| 20260510100300 | 38 | 250 | 4.0 | 9.0 | 0.00 | 0.00 | 0.00 | 97 | 966.0 |
| 20260510095800 | 38 | 248 | 4.0 | 9.0 | 0.00 | 0.00 | 0.00 | 96 | 966.0 |
| 20260510095300 | 38 | 264 | 4.0 | 9.0 | 0.00 | 0.00 | 0.00 | 98 | 966.3 |
| 20260510094800 | 38 | 212 | 5.0 | 9.0 | 0.00 | 0.00 | 0.00 | 97 | 966.3 |
| 20260510094300 | 38 | 285 | 5.0 | 9.0 | 0.00 | 0.00 | 0.00 | 96 | 966.3 |
| 20260510093800 | 38 | 207 | 4.0 | 9.0 | 0.00 | 0.00 | 0.00 | 99 | 966.3 |
| 20260510093300 | 38 | 223 | 4.0 | 6.0 | 0.00 | 0.00 | 0.00 | 98 | 966.3 |
| 20260510092730 | 38 | 223 | 4.0 | 6.0 | 0.00 | 0.00 | 0.00 | 98 | 966.5 |
| 20260510092200 | 38 | 306 | 4.0 | 6.0 | 0.00 | 0.00 | 0.00 | 97 | 966.5 |
| 20260510091700 | 38 | 283 | 4.0 | 7.0 | 0.00 | 0.00 | 0.00 | 98 | 966.5 |
| 20260510091200 | 38 | 311 | 4.0 | 7.0 | 0.00 | 0.00 | 0.00 | 98 | 966.7 |
| 20260510090700 | 38 | 278 | 3.0 | 6.0 | 0.00 | 0.00 | 0.00 | 98 | 966.7 |
| 20260510090200 | 38 | 316 | 3.0 | 7.0 | 0.00 | 0.00 | 0.00 | 98 | 966.7 |
| 20260510085700 | 38 | 295 | 3.0 | 8.0 | 0.00 | 0.00 | 0.00 | 98 | 966.8 |
| 20260510085200 | 38 | 293 | 3.0 | 8.0 | 0.00 | 0.00 | 0.00 | 99 | 966.8 |
| 20260510084630 | 38 | 270 | 4.0 | 9.0 | 0.00 | 0.00 | 0.00 | 98 | 966.8 |
| 20260510084100 | 38 | 287 | 3.0 | 9.0 | 0.00 | 0.00 | 0.00 | 97 | 967.0 |
| 20260510083600 | 38 | 306 | 3.0 | 6.0 | 0.00 | 0.00 | 0.00 | 98 | 966.9 |
| 20260510083100 | 38 | 304 | 3.0 | 6.0 | 0.00 | 0.00 | 0.00 | 99 | 967.1 |
| 20260510082600 | 38 | 327 | 3.0 | 5.0 | 0.00 | 0.00 | 0.00 | 98 | 967.2 |
| 20260510082100 | 38 | 285 | 3.0 | 5.0 | 0.00 | 0.00 | 0.00 | 99 | 967.2 |
| 20260510081600 | 37 | 316 | 3.0 | 6.0 | 0.00 | 0.00 | 0.00 | 10 | 967.3 |
| 20260510081030 | 37 | 294 | 3.0 | 6.0 | 0.00 | 0.00 | 0.00 | 10 | 967.4 |
| 20260510080530 | 37 | 281 | 3.0 | 6.0 | 0.00 | 0.00 | 0.00 | 10 | 967.4 |
| 20260510080030 | 36 | 294 | 3.0 | 6.0 | 0.00 | 0.00 | 0.00 | 10 | 967.5 |
| 20260510075500 | 36 | 277 | 3.0 | 6.0 | 0.00 | 0.00 | 0.00 | 10 | 967.7 |
| 20260510075000 | 36 | 273 | 3.0 | 7.0 | 0.00 | 0.00 | 0.00 | 10 | 967.6 |
| 20260510074500 | 36 | 252 | 3.0 | 8.0 | 0.00 | 0.00 | 0.00 | 10 | 967.7 |
| 20260510073930 | 35 | 311 | 3.0 | 8.0 | 0.00 | 0.00 | 0.00 | 10 | 967.6 |
| 20260510073430 | 35 | 255 | 3.0 | 6.0 | 0.00 | 0.00 | 0.00 | 10 | 967.7 |
| 20260510072930 | 35 | 246 | 3.0 | 6.0 | 0.00 | 0.00 | 0.00 | 10 | 967.8 |
| 20260510072400 | 35 | 253 | 3.0 | 6.0 | 0.00 | 0.00 | 0.00 | 10 | 967.9 |
| 20260510071900 | 35 | 269 | 3.0 | 6.0 | 0.00 | 0.00 | 0.00 | 10 | 967.8 |
| 20260510071400 | 34 | 246 | 3.0 | 7.0 | 0.00 | 0.00 | 0.00 | 10 | 968.1 |
| 20260510070900 | 34 | 250 | 3.0 | 7.0 | 0.00 | 0.00 | 0.00 | 10 | 968.2 |
| 20260510070400 | 34 | 239 | 3.0 | 7.0 | 0.00 | 0.00 | 0.00 | 10 | 968.2 |
| 20260510065830 | 34 | 241 | 3.0 | 6.0 | 0.00 | 0.00 | 0.00 | 10 | 968.2 |
| 20260510065330 | 34 | 235 | 3.0 | 6.0 | 0.00 | 0.00 | 0.00 | 10 | 968.2 |
| 20260510064800 | 34 | 212 | 3.0 | 7.0 | 0.00 | 0.00 | 0.00 | 10 | 968.3 |
| 20260510064300 | 34 | 243 | 2.0 | 7.0 | 0.00 | 0.00 | 0.00 | 10 | 968.3 |
| 20260510063759 | 35 | 220 | 2.0 | 7.0 | 0.00 | 0.00 | 0.00 | 10 | 968.3 |
| 20260510063259 | 35 | 258 | 2.0 | 6.0 | 0.00 | 0.00 | 0.00 | 10 | 968.4 |
| 20260510062729 | 35 | 169 | 3.0 | 7.0 | 0.00 | 0.00 | 0.00 | 10 | 968.4 |
| 20260510062229 | 35 | 257 | 4.0 | 8.0 | 0.00 | 0.00 | 0.00 | 10 | 968.4 |
| 20260510061729 | 35 | 211 | 5.0 | 10.0 | 0.00 | 0.00 | 0.00 | 10 | 968.4 |
| 20260510061229 | 36 | 198 | 5.0 | 10.0 | 0.00 | 0.00 | 0.00 | 10 | 968.2 |
| 20260510060659 | 36 | 224 | 5.0 | 10.0 | 0.00 | 0.00 | 0.00 | 10 | 968.3 |
| 20260510060159 | 37 | 229 | 5.0 | 10.0 | 0.00 | 0.00 | 0.00 | 10 | 968.2 |
| 20260510055659 | 37 | 260 | 5.0 | 9.0 | 0.00 | 0.00 | 0.00 | 10 | 968.3 |
| 20260510055159 | 37 | 234 | 5.0 | 10.0 | 0.00 | 0.00 | 0.00 | 10 | 968.3 |
| 20260510054659 | 37 | 265 | 5.0 | 10.0 | 0.00 | 0.00 | 0.00 | 10 | 968.2 |
| 20260510054159 | 37 | 259 | 5.0 | 10.0 | 0.00 | 0.00 | 0.00 | 10 | 968.2 |
| 20260510053659 | 37 | 288 | 5.0 | 9.0 | 0.00 | 0.00 | 0.00 | 10 | 968.2 |
| 20260510053159 | 37 | 265 | 5.0 | 9.0 | 0.00 | 0.00 | 0.00 | 10 | 968.3 |
| 20260510052659 | 37 | 283 | 5.0 | 9.0 | 0.00 | 0.00 | 0.00 | 10 | 968.4 |
| 20260510052159 | 37 | 263 | 5.0 | 9.0 | 0.00 | 0.00 | 0.00 | 10 | 968.3 |
| 20260510051629 | 37 | 291 | 5.0 | 9.0 | 0.00 | 0.00 | 0.00 | 10 | 968.3 |
| 20260510051129 | 37 | 258 | 4.0 | 9.0 | 0.00 | 0.00 | 0.00 | 10 | 968.3 |
| 20260510050629 | 37 | 258 | 4.0 | 7.0 | 0.00 | 0.00 | 0.00 | 10 | 968.4 |
| 20260510050129 | 37 | 286 | 4.0 | 7.0 | 0.00 | 0.00 | 0.00 | 10 | 968.7 |
| 20260510045629 | 37 | 264 | 4.0 | 7.0 | 0.00 | 0.00 | 0.00 | 10 | 968.6 |
| 20260510045129 | 37 | 257 | 5.0 | 9.0 | 0.00 | 0.00 | 0.00 | 10 | 968.6 |
| 20260510044629 | 37 | 264 | 5.0 | 9.0 | 0.00 | 0.00 | 0.00 | 10 | 968.6 |
| 20260510044059 | 37 | 260 | 5.0 | 8.0 | 0.00 | 0.00 | 0.00 | 10 | 968.4 |
| 20260510043559 | 37 | 274 | 5.0 | 8.0 | 0.00 | 0.00 | 0.00 | 10 | 968.3 |
| 20260510043059 | 38 | 237 | 5.0 | 8.0 | 0.00 | 0.00 | 0.00 | 10 | 968.5 |
| 20260510042559 | 38 | 279 | 5.0 | 8.0 | 0.00 | 0.00 | 0.00 | 10 | 968.5 |
| 20260510042059 | 38 | 256 | 5.0 | 7.0 | 0.00 | 0.00 | 0.00 | 10 | 968.4 |
| 20260510041559 | 38 | 268 | 4.0 | 7.0 | 0.00 | 0.00 | 0.00 | 10 | 968.5 |
| 20260510041059 | 38 | 249 | 4.0 | 7.0 | 0.00 | 0.00 | 0.00 | 10 | 968.5 |
| 20260510040559 | 38 | 265 | 4.0 | 7.0 | 0.00 | 0.00 | 0.00 | 10 | 968.6 |
| 20260510040059 | 38 | 247 | 3.0 | 7.0 | 0.00 | 0.00 | 0.00 | 10 | 968.6 |
| 20260510035559 | 38 | 265 | 2.0 | 6.0 | 0.00 | 0.00 | 0.00 | 10 | 968.6 |
| 20260510035059 | 38 | 269 | 2.0 | 4.0 | 0.00 | 0.00 | 0.00 | 10 | 968.6 |
| 20260510034559 | 38 | 263 | 2.0 | 6.0 | 0.00 | 0.00 | 0.00 | 10 | 968.6 |
| 20260510034059 | 38 | 294 | 4.0 | 6.0 | 0.00 | 0.00 | 0.00 | 10 | 968.5 |
| 20260510033558 | 38 | 15 | 4.0 | 6.0 | 0.00 | 0.00 | 0.00 | 10 | 968.7 |
| 20260510033058 | 38 | 19 | 3.0 | 9.0 | 0.00 | 0.00 | 0.00 | 10 | 968.7 |
| 20260510032528 | 38 | 335 | 3.0 | 9.0 | 0.00 | 0.00 | 0.00 | 10 | 968.7 |
| 20260510031958 | 38 | 15 | 4.0 | 9.0 | 0.00 | 0.00 | 0.00 | 10 | 968.7 |
| 20260510031458 | 38 | 314 | 3.0 | 9.0 | 0.00 | 0.00 | 0.00 | 10 | 968.8 |
| 20260510030958 | 38 | 18 | 3.0 | 10.0 | 0.00 | 0.00 | 0.00 | 10 | 968.8 |
| 20260510030458 | 38 | 305 | 4.0 | 10.0 | 0.00 | 0.00 | 0.00 | 10 | 968.9 |
| 20260510025928 | 38 | 278 | 4.0 | 8.0 | 0.00 | 0.00 | 0.00 | 10 | 968.9 |
| 20260510025358 | 38 | 288 | 3.0 | 8.0 | 0.00 | 0.00 | 0.00 | 10 | 968.9 |
| 20260510024828 | 38 | 305 | 4.0 | 8.0 | 0.00 | 0.00 | 0.00 | 10 | 969.1 |
| 20260510024328 | 38 | 262 | 5.0 | 8.0 | 0.00 | 0.00 | 0.00 | 10 | 969.2 |
| 20260510023828 | 38 | 249 | 5.0 | 9.0 | 0.00 | 0.00 | 0.00 | 10 | 969.2 |
| 20260510023258 | 38 | 265 | 5.0 | 9.0 | 0.00 | 0.00 | 0.00 | 10 | 969.2 |
| 20260510022758 | 38 | 241 | 5.0 | 9.0 | 0.00 | 0.00 | 0.00 | 10 | 969.3 |
| 20260510022258 | 39 | 295 | 5.0 | 9.0 | 0.00 | 0.00 | 0.00 | 10 | 969.3 |
| 20260510021728 | 39 | 256 | 5.0 | 9.0 | 0.00 | 0.00 | 0.00 | 10 | 969.4 |
| 20260510021158 | 39 | 252 | 5.0 | 9.0 | 0.00 | 0.00 | 0.00 | 10 | 969.5 |
| 20260510020658 | 39 | 278 | 5.0 | 9.0 | 0.00 | 0.00 | 0.00 | 10 | 969.4 |
| 20260510020158 | 39 | 291 | 4.0 | 9.0 | 0.00 | 0.00 | 0.00 | 10 | 969.4 |
| 20260510015658 | 39 | 262 | 4.0 | 9.0 | 0.00 | 0.00 | 0.00 | 10 | 969.6 |
| 20260510015128 | 39 | 288 | 5.0 | 8.0 | 0.00 | 0.00 | 0.00 | 10 | 969.7 |
| 20260510014628 | 39 | 225 | 5.0 | 8.0 | 0.00 | 0.00 | 0.00 | 10 | 969.7 |
| 20260510014128 | 39 | 256 | 5.0 | 9.0 | 0.00 | 0.00 | 0.00 | 10 | 969.7 |
| 20260510013558 | 40 | 223 | 5.0 | 9.0 | 0.00 | 0.00 | 0.00 | 10 | 969.9 |
| 20260510013058 | 40 | 251 | 4.0 | 7.0 | 0.00 | 0.00 | 0.00 | 10 | 969.8 |
| 20260510012558 | 40 | 221 | 4.0 | 7.0 | 0.00 | 0.00 | 0.00 | 10 | 969.7 |
| 20260510012058 | 40 | 235 | 4.0 | 7.0 | 0.00 | 0.00 | 0.00 | 10 | 969.6 |
| 20260510011558 | 40 | 251 | 3.0 | 7.0 | 0.00 | 0.00 | 0.00 | 10 | 969.8 |
| 20260510011028 | 41 | 259 | 3.0 | 6.0 | 0.00 | 0.00 | 0.00 | 10 | 969.9 |
| 20260510010528 | 41 | 249 | 2.0 | 5.0 | 0.00 | 0.00 | 0.00 | 10 | 969.9 |
| 20260510010028 | 41 | 262 | 2.0 | 5.0 | 0.00 | 0.00 | 0.00 | 10 | 970.0 |
| 20260510005458 | 41 | 184 | 2.0 | 5.0 | 0.00 | 0.00 | 0.00 | 10 | 969.9 |
| 20260510004958 | 41 | 51 | 3.0 | 5.0 | 0.00 | 0.00 | 0.00 | 10 | 970.0 |
| 20260510004428 | 41 | 22 | 4.0 | 6.0 | 0.00 | 0.00 | 0.00 | 10 | 970.0 |
| 20260510003928 | 41 | 24 | 3.0 | 6.0 | 0.00 | 0.00 | 0.00 | 99 | 970.0 |
| 20260510003428 | 41 | 40 | 2.0 | 4.0 | 0.00 | 0.00 | 0.00 | 98 | 970.1 |
| 20260510002928 | 42 | 24 | 1.0 | 4.0 | 0.00 | 0.00 | 0.00 | 98 | 970.2 |
| 20260510002428 | 42 | 98 | 1.0 | 4.0 | 0.00 | 0.00 | 0.00 | 98 | 970.1 |
| 20260510001928 | 42 | 238 | 1.0 | 6.0 | 0.00 | 0.00 | 0.00 | 98 | 970.0 |
| 20260510001428 | 42 | 282 | 2.0 | 7.0 | 0.00 | 0.00 | 0.00 | 98 | 969.8 |
| 20260510000928 | 42 | 189 | 3.0 | 8.0 | 0.00 | 0.00 | 0.00 | 99 | 969.9 |
| 20260510000358 | 42 | 203 | 4.0 | 11.0 | 0.00 | 0.00 | 0.00 | 98 | 969.9 |
| 20260509235858 | 42 | 195 | 3.0 | 11.0 | 0.00 | 0.00 | 0.00 | 98 | 970.0 |
| 20260509235358 | 42 | 222 | 3.0 | 11.0 | 0.00 | 0.00 | 0.00 | 97 | 970.0 |
| 20260509234858 | 42 | 202 | 3.0 | 12.0 | 0.00 | 0.00 | 0.00 | 97 | 970.0 |
| 20260509234357 | 43 | 149 | 4.0 | 12.0 | 0.00 | 0.00 | 0.00 | 96 | 970.0 |
| 20260509233857 | 43 | 208 | 4.0 | 13.0 | 0.00 | 0.00 | 0.00 | 95 | 970.0 |
| 20260509233357 | 43 | 182 | 5.0 | 13.0 | 0.00 | 0.00 | 0.00 | 92 | 969.9 |
| 20260509232857 | 44 | 182 | 4.0 | 12.0 | 0.00 | 0.00 | 0.00 | 88 | 969.9 |
| 20260509232357 | 45 | 187 | 4.0 | 12.0 | 0.00 | 0.00 | 0.00 | 83 | 970.0 |
| 20260509231857 | 46 | 91 | 3.0 | 12.0 | 0.00 | 0.00 | 0.00 | 79 | 970.0 |
| 20260509231357 | 46 | 144 | 3.0 | 12.0 | 0.00 | 0.00 | 0.00 | 74 | 969.8 |
| 20260509230857 | 47 | 193 | 4.0 | 9.0 | 0.00 | 0.00 | 0.00 | 71 | 969.7 |
| 20260509230357 | 47 | 137 | 4.0 | 10.0 | 0.00 | 0.00 | 0.00 | 70 | 969.7 |
| 20260509225857 | 47 | 222 | 4.0 | 10.0 | 0.00 | 0.00 | 0.00 | 69 | 969.8 |
| 20260509225357 | 47 | 174 | 5.0 | 9.0 | 0.00 | 0.00 | 0.00 | 68 | 969.8 |
| 20260509224858 | 47 | 177 | 4.0 | 9.0 | 0.00 | 0.00 | 0.00 | 68 | 969.8 |
| 20260509224357 | 47 | 234 | 4.0 | 9.0 | 0.00 | 0.00 | 0.00 | 67 | 969.8 |
| 20260509223857 | 47 | 141 | 4.0 | 9.0 | 0.00 | 0.00 | 0.00 | 66 | 969.9 |
| 20260509223328 | 48 | 212 | 4.0 | 10.0 | 0.00 | 0.00 | 0.00 | 66 | 969.8 |
| 20260509222827 | 48 | 206 | 4.0 | 10.0 | 0.00 | 0.00 | 0.00 | 65 | 969.8 |
| 20260509222327 | 48 | 266 | 4.0 | 11.0 | 0.00 | 0.00 | 0.00 | 65 | 969.8 |
| 20260509221827 | 48 | 239 | 4.0 | 11.0 | 0.00 | 0.00 | 0.00 | 64 | 969.8 |
| 20260509221327 | 48 | 256 | 4.0 | 11.0 | 0.00 | 0.00 | 0.00 | 63 | 969.8 |